This is the latest recevied weather packets stored in our database for station/object KM6YFK-13. If no packets are shown the sender has not sent any weather packets the latest 10 day(s).
| Time | Temp. | Humidity | Pressure | Rain* | Wind** | Luminosity | Snow |
|---|---|---|---|---|---|---|---|
| 1777595308 | 22.78° C | 95% | 1010 hPa | 0 mm | - | 0 W/m² | - |
| 1777595008 | 22.78° C | 95% | 1009.7 hPa | 0 mm | - | 0 W/m² | - |
| 1777594707 | 22.78° C | 95% | 1009.8 hPa | 0 mm | - | 0 W/m² | - |
| 1777594408 | 22.78° C | 96% | 1009.7 hPa | 0 mm | - | 0 W/m² | - |
| 1777594108 | 22.78° C | 95% | 1009.7 hPa | 0 mm | - | 1 W/m² | - |
| 1777593808 | 22.78° C | 95% | 1009.7 hPa | 0 mm | - | 2 W/m² | - |
| 1777593508 | 22.78° C | 95% | 1009.6 hPa | 0 mm | - | 3 W/m² | - |
| 1777593208 | 22.78° C | 95% | 1009.6 hPa | 0 mm | - | 5 W/m² | - |
| 1777592908 | 22.78° C | 95% | 1009.5 hPa | 0 mm | - | 8 W/m² | - |
| 1777592609 | 22.78° C | 95% | 1009.6 hPa | 0 mm | - | 13 W/m² | - |
| 1777592308 | 22.78° C | 95% | 1009.5 hPa | 0 mm | - | 20 W/m² | - |
| 1777592008 | 23.33° C | 95% | 1009.4 hPa | 0 mm | - | 26 W/m² | - |
| 1777591708 | 23.33° C | 94% | 1009.4 hPa | 0 mm | - | 32 W/m² | - |
| 1777591408 | 23.33° C | 94% | 1009.4 hPa | 0 mm | - | 38 W/m² | - |
| 1777591107 | 23.33° C | 94% | 1009.3 hPa | 0 mm | - | 41 W/m² | - |
| 1777590807 | 23.33° C | 94% | 1009.2 hPa | 0 mm | - | 43 W/m² | - |
| 1777590508 | 23.33° C | 94% | 1009.2 hPa | 0 mm | - | 45 W/m² | - |
| 1777590209 | 23.33° C | 93% | 1009.2 hPa | 0 mm | - | 50 W/m² | - |
| 1777589908 | 23.33° C | 93% | 1009.2 hPa | 0 mm | - | 61 W/m² | - |
| 1777589608 | 23.33° C | 92% | 1009.2 hPa | 0 mm | - | 77 W/m² | - |
| 1777589307 | 23.33° C | 91% | 1009.2 hPa | 0 mm | - | 92 W/m² | - |
| 1777589008 | 23.33° C | 91% | 1009.4 hPa | 0 mm | - | 92 W/m² | - |
| 1777588707 | 23.33° C | 91% | 1009.5 hPa | 0 mm | - | 107 W/m² | - |
| 1777588407 | 23.89° C | 91% | 1009.6 hPa | 0 mm | - | 135 W/m² | - |
| 1777588107 | 24.44° C | 89% | 1009.6 hPa | 2.54 mm | - | 162 W/m² | - |
* Rain latest hour (hover to see other rain measurements)
** Current wind speed in m/s (hover to see current wind gust speed)